Rbgn^[z[y[W
メイン
   新天体発見情報
     Comet C/2018 KJ3 (Lemmon)
投稿するにはまず登録を

スレッド表示 | 新しいものから 前のトピック | 次のトピック | 下へ
投稿者 スレッド
佐藤裕久
投稿日時: 2018-8-21 22:54
モデレータ
登録日: 2005-6-12
居住地: 日本
投稿: 2701
オンライン
Comet C/2018 KJ3 (Lemmon)

5月17日、H. Groellerと G. J. LeonardがMt Lemmonサーベイの1.5-m反射望遠鏡で得た画像から外見上
の小惑星状天体を発見した(5月の時に発見したとして小惑星センターによって2018 KJ3の仮符号がつけ
られた)。8月7.33日UT、K. J. MeechとJ. Kleyna (M. Micheli, Kleyna, MeechとJ. Keaneによって報告
された)は、3.6-m Canada-France-Hawaii Telescopeで得た4枚の 120秒 r-バンド画像から、彗星状で
あることがわかった。Micheliの注記では、東に約5"の幅広い尾と18.8-19.4等の伸びた中央集光があり、
イメージはFWHM(半値全幅)がシーイング0".6で約1".0に見えた。

発見位置は次のとおり、

     2018 UT             R.A. (2000) Decl.       Mag.   Observer
     May  17.40610   20 19 11.99   + 5 17 13.3   19.9   Groeller
          17.41087   20 19 11.84   + 5 17 13.2   19.9     "
          17.41566   20 19 11.69   + 5 17 13.2   19.8     "
          17.42044   20 19 11.54   + 5 17 13.0   20.2     "

準放物線軌道要素と位置推算表は次のとおり、

Orbital elements:
    C/2018 KJ3 (Lemmon)
Epoch 2019 Aug. 25.0 TT = JDT 2458720.5
T 2019 Sept.  9.52550 TT                                MPCW
q   3.6281760            (2000.0)            P               Q
z  +0.0012347      Peri.  217.63389     -0.42220723     -0.59318585
 +/-0.0000587      Node    91.59586     -0.57109677     +0.76129693
e   0.9955203      Incl.  136.70634     -0.70398121     -0.26183492
From 130 observations 2018 May 17-Aug. 7, mean residual 0".4.

    C/2018 KJ3 (Lemmon)
Epoch 2018 Mar. 23.0 TT = JDT 2458200.5
T 2019 Sept. 10.02431 TT                                MPCW
q   3.6271353            (2000.0)            P               Q
z  +0.0012280      Peri.  217.71469     -0.42285630     -0.59213299
 +/-0.0000587      Node    91.58833     -0.56984051     +0.76234248
e   0.9955458      Incl.  136.66636     -0.70460936     -0.26117516
From 130 observations 2018 May 17-Aug. 7, mean residual 0".4.

Ephemeris:
    C/2018 KJ3 (Lemmon)
Date    TT    R. A. (2000) Decl.     Delta      r     Elong.  Phase   m1    m2
2018 07 14    19 26 14.4 +01 57 14   4.2181  5.1648   156.3     4.5        19.3
...
2018 07 29    19 07 39.6 -00 01 09   4.1588  5.0780   152.0     5.4        19.3
...
2018 08 06    18 58 04.0 -01 12 14   4.1628  5.0321   145.5     6.5        19.3
...
2018 08 12    18 51 13.4 -02 07 55   4.1812  4.9979   139.8     7.5        19.3
2018 08 13    18 50 07.2 -02 17 20   4.1854  4.9922   138.8     7.7        19.3
2018 08 14    18 49 01.7 -02 26 47   4.1900  4.9865   137.7     7.9        19.4
...
2018 08 20    18 42 45.1 -03 23 54   4.2244  4.9526   131.4     8.8        19.4
...
2018 08 28    18 35 11.0 -04 40 24   4.2862  4.9076   122.8    10.0        19.5
...
2018 09 12    18 23 47.3 -07 00 42   4.4409  4.8244   106.5    11.5        19.6

(CBET 4541、MPEC 2018-P84)

スレッド表示 | 新しいものから 前のトピック | 次のトピック | トップ

投稿するにはまず登録を
 
© 1999 Tsutomu Seki.